Regional Weather Roundup
Issued by NWS

Home | Current Version | Previous Version | Graphics & Text | Print | Product List | Glossary On
Versions: 1 2 3 4 5 6 7 8 9 10 11 12 13 14 15 16 17 18 19 20 21 22 23 24 25 26 27 28 29 30 31 32 33 34 35 36 37 38 39 40 41 42 43 44 45 46 47 48 49 50
376
ASUS45 KBOI 271710
RWRID

IDAHO REGIONAL WEATHER ROUNDUP
NATIONAL WEATHER SERVICE BOISE ID
1000 AM MST MON FEB 27 2017

NOTE: "FAIR" INDICATES FEW OR NO CLOUDS BELOW 12000 FEET
WITH NO SIGNIFICANT WEATHER AND/OR OBSTRUCTIONS TO VISIBILITY

IDZ012-014-271800-
SOUTHWEST IDAHO


CITY           SKY/WX    TMP DP  RH WIND       PRES   REMARKS
BOISE          MOSUNNY   32  25  75 NW6       29.74R WCI  26
CALDWELL       PTSUNNY   35  23  61 W13       29.77R WCI  26
MOUNTAIN HOME  PTSUNNY   33  33  96 NW9       29.73R WCI  26
$$

IDZ016-017-271800-
SOUTHCENTRAL IDAHO


CITY           SKY/WX    TMP DP  RH WIND       PRES   REMARKS
BURLEY         LGT SNOW  27  23  85 W14       29.65R VSB 3/4 WCI  16
JEROME           N/A    N/A N/A N/A MISG      29.68R
TWIN FALLS     LGT SNOW  26  22  84 SW16      29.69R FOG     WCI  14
$$

IDZ019>023-271800-
SOUTHEAST IDAHO


CITY           SKY/WX    TMP DP  RH WIND       PRES   REMARKS
IDAHO FALLS    CLOUDY    24  22  91 CALM      29.63S
POCATELLO      CLOUDY    25  21  85 W7        29.63R WCI  17
REXBURG        CLOUDY    22  21  96 SW5       29.60F WCI  16
$$

IDZ006-010-011-018-031-032-271800-
CENTRAL IDAHO MOUNTAINS


CITY           SKY/WX    TMP DP  RH WIND       PRES   REMARKS
MCCALL         FLURRIES  22  17  81 S6        29.57R WCI  14
HAILEY         LGT SNOW  14  10  85 NW12      29.61S VSB 1   WCI   0
STANLEY          N/A     10   5  80 N3        29.56R
SALMON         CLOUDY    27  12  54 N6        29.60S WCI  20
CHALLIS        PTSUNNY   16   8  71 CALM      29.59S
$$

IDZ002-004-006-007-026-271800-
NORTHERN IDAHO


CITY           SKY/WX    TMP DP  RH WIND       PRES   REMARKS
LEWISTON       LGT SNOW  31  30  96 SE5       29.72S FOG     WCI  26
LOWELL           N/A     33  29  85 CALM      29.73R
COEUR D`ALENE  LGT SNOW  30  28  93 SW6       29.65R VSB 1   WCI  24
MULLAN PASS    LGT SNOW  19  13  77 CALM      29.45S
$$




USA.gov is the U.S. government's official web portal to all federal, state and local government web resources and services.